Regional Weather Roundup
Issued by NWS

Home | Current Version | Previous Version | Graphics & Text | Print | Product List | Glossary On
Versions: 1 2 3 4 5 6 7 8 9 10 11 12 13 14 15 16 17 18 19 20 21 22 23 24 25 26 27
000
ASUS45 KBOU 281707
RWRCO

WEATHER ROUNDUP FOR COLORADO
NATIONAL WEATHER SERVICE DENVER/BOULDER CO
1100 AM MDT THU JUL 28 2016

NOTE: "FAIR" INDICATES FEW OR NO CLOUDS BELOW 12000 FEET WITH NO
SIGNIFICANT WEATHER AND/OR OBSTRUCTIONS TO VISIBILITY.

COZ001>005-013-030-031-281800-
...NORTHWEST COLORADO...

CITY           SKY/WX    TMP DP  RH WIND       PRES   REMARKS
CRAIG          FAIR      78  32  18 VRB3      30.27F
HAYDEN         FAIR      75  28  17 CALM      30.29F
MEEKER         FAIR      78  35  21 MISG      30.26F
MOUNT WERNER   NOT AVBL
STEAMBOAT SPGS FAIR      74  33  22 CALM      30.31F
WALDEN         FAIR      70  28  21 CALM      30.39F
$$

COZ006>008-011-281800-
...WEST CENTRAL VALLEYS...

CITY           SKY/WX    TMP DP  RH WIND       PRES   REMARKS
GRAND JUNCTION FAIR      85  33  15 S8        30.14S
MONTROSE       FAIR      82  46  28 VRB6      30.23F
EAGLE          SUNNY     73  28  19 CALM      30.32F
RIFLE          FAIR      80  37  21 CALM      30.20F
DELTA          NOT AVBL
NUCLA          NOT AVBL
$$

COZ017>023-064>068-281800-
...SOUTHWEST COLORADO...

CITY           SKY/WX    TMP DP  RH WIND       PRES   REMARKS
DURANGO        FAIR      82  45  27 VRB5      30.32F
CORTEZ         FAIR      89  45  21 NW5       30.23F
PAGOSA SPRINGS FAIR      78  38  23 S5        30.42F
TELLURIDE      NOT AVBL
WOLF CREEK PAS FAIR      57  41  54 SW15G22   30.77S
$$

COZ009-010-012-014-032>034-037-058>063-281800-
...CENTRAL COLORADO...

CITY           SKY/WX    TMP DP  RH WIND       PRES   REMARKS
ASPEN          FAIR      80  28  15 NE5       30.37S
BUENA VISTA    FAIR      77  33  20 SE3       30.38F
COPPER MTN     FAIR      64  14  14 NW16G25   30.71F
BERTHOUD PASS  FAIR      55  41  58 N13G30    30.74S
COTTONWOOD PAS FAIR      75  23  14 CALM      30.54F
GUNNISON       FAIR      72  37  28 CALM      30.42F
KREMMLING      FAIR      72  32  23 CALM      30.37F
LEADVILLE      FAIR      72  14  11 W15G25    30.52F
MONARCH PASS   FAIR      61  32  33 MISG      30.84R
SALIDA         FAIR      81  39  22 N3        30.41F
SUNLIGHT       NOT AVBL
WILKERSON PASS FAIR      64  32  29 CALM      30.68S
$$

COZ069>075-281800-
...SAN LUIS VALLEY/SANGRE DE CRISTO MOUNTAINS...

CITY           SKY/WX    TMP DP  RH WIND       PRES   REMARKS
ALAMOSA          N/A    N/A N/A N/A MISG      30.38F
LA VETA PASS   FAIR      70  39  32 S6        30.58S
SAGUACHE       FAIR      73  46  38 S9        30.42F
$$

COZ035-036-038>040-281800-
...NORTHERN COLORADO FRONT RANGE...

CITY           SKY/WX    TMP DP  RH WIND       PRES   REMARKS
DENVER INTL AP FAIR      74  59  59 N10       30.20R
DMNS CITY PARK   N/A     73  58  59 NW3G12    30.20S
AURORA         NOT AVBL
FRONT RANGE AP MOSUNNY   75  61  60 NW16      30.21R
ERIE MUNI ARPT FAIR      75  57  54 N10       30.18F
BOULDER MUN AP FAIR      73  57  56 CALM      30.20F
CENTENNIAL     FAIR      74  57  55 N17       30.22R
BROOMFIELD     MOSUNNY   73  57  56 N12       30.22F
LONGMONT       NOT AVBL
$$

COZ041-046-047-076>085-087-088-281800-
...PIKES PEAK/PALMER DIVIDE AND SOUTHERN FOOTHILLS...

CITY           SKY/WX    TMP DP  RH WIND       PRES   REMARKS
COLO. SPRINGS  FAIR      75  56  51 SE6       30.24F
A. F. ACADEMY  NOT AVBL
SCHRIEVER AFB  NOT AVBL
ELLICOTT       NOT AVBL
FALCON         NOT AVBL
FORT CARSON    NOT AVBL
LIMON          FAIR      79  57  46 S17       30.17F
MONUMENT HILL  FAIR      81  37  21 N7        30.29F
TRINIDAD       NOT AVBL
$$

COZ042>045-048>051-090-091-281800-
...NORTHEAST COLORADO...

CITY           SKY/WX    TMP DP  RH WIND       PRES   REMARKS
GREELEY ARPT   FAIR      70  61  73 N12       30.18S
AKRON          FAIR      73  56  54 SE12      30.16F
BURLINGTON     FAIR      74  61  63 NE18G28   30.15S
WRAY           NOT AVBL
STERLING       NOT AVBL
HOLYOKE        NOT AVBL
FORT MORGAN    NOT AVBL
$$

COZ086-089-092>099-281800-
...SOUTHEAST COLORADO...

CITY           SKY/WX    TMP DP  RH WIND       PRES   REMARKS
PUEBLO         FAIR      83  58  42 MISG      30.13F
LA JUNTA       FAIR      89  57  33 S8        30.06F
LAMAR          FAIR      86  59  39 S24       30.03F
SPRINGFIELD      N/A     85  57  38 S24G32    30.12F
$$




USA.gov is the U.S. government's official web portal to all federal, state and local government web resources and services.